EHI
0 0 0 0 0 0 0 0 0 0 0 0 0 0 0 0 0 0 0 0 0 0 0 0 0 0 0 0 0 0 0 0 0 0 0 0 0 0 0 0 0 0 0
0 0 0 0 0 0 0 0 0 0 0 0 0 0 0 0 0 0 0 0 0 0 0 0 0 0 0 0 0 0 0 0 0 0 0 0 0 0 0 0 0 0 0
0 0 0 0 0 0 0 0 0 0 0 0 0 0 0 0 0 0 0 0 0 0 0 0 1 1 1 0 0 0 0 0 0 0 0 0 0 0 0 0 0 0 0
0 0 0 0 0 0 0 0 0 0 0 0 0 0 0 0 0 0 0 0 0 0 0 0 1 1 1 0 0 0 0 0 0 0 0 0 0 0 0 0 0 0 0
0 0 0 0 0 0 0 0 0 0 0 0 0 0 0 0 0 0 0 0 0 0 0 0 0 1 1 1 1 0 0 0 0 0 0 0 0 0 0 0 0 0 0
0 0 0 0 0 0 0 0 0 0 0 0 0 0 0 0 0 0 0 0 0 0 0 0 0 0 1 1 1 0 0 0 0 0 0 0 0 0 0 0 0 0 0
0 0 0 0 0 0 0 0 0 0 0 0 0 0 0 0 0 0 0 0 0 0 0 0 0 0 0 1 1 0 0 0 0 0 0 0 0 0 0 0 0 0 0
0 0 0 0 0 0 0 0 0 0 0 0 0 0 0 0 0 0 0 0 0 0 0 0 0 0 0 0 0 0 0 0 0 0 0 0 0 0 0 0 0 0 0
0 0 0 0 0 0 0 0 0 0 0 0 0 0 0 0 0 0 0 0 0 0 0 0 0 0 0 0 0 0 0 0 0 0 0 0 0 0 0 0 0 0 0
0 0 0 0 0 0 0 0 0 0 0 0 0 0 0 0 0 0 0 0 0 0 0 0 0 0 0 0 0 0 0 0 0 0 0 0 0 0 0 0 0 0 0
0 0 0 0 0 0 0 0 0 0 0 0 0 0 0 0 0 0 0 0 0 0 0 0 0 0 0 0 0 0 0 0 0 0 0 0 0 0 0 0 0 0 0
0 0 0 0 0 0 0 0 0 0 0 0 0 0 0 0 0 0 0 0 0 0 0 0 0 0 0 0 0 0 0 0 0 0 0 0 0 0 0 0 0 0 0
0 0 0 0 0 0 0 0 0 0 0 0 0 0 0 0 0 0 0 0 0 0 0 0 0 0 0 0 0 0 0 0 0 0 0 0 0 0 0 0 0 0 0
0 0 0 0 0 0 0 0 0 0 0 0 0 0 0 0 0 0 0 0 0 0 0 0 0 0 0 0 0 0 0 0 0 0 0 0 0 0 0 0 0 0 0
0 0 0 0 0 0 0 0 0 0 0 0 0 0 0 0 0 0 0 0 0 0 0 0 0 0 0 0 0 0 0 0 0 0 0 0 0 0 0 0 0 0 0
0 0 0 0 0 0 0 0 0 0 0 0 0 0 0 0 0 0 0 0 0 0 0 0 0 0 0 0 0 0 0 0 0 0 0 0 0 0 0 0 0 0 0
0 0 0 0 0 0 0 1 1 1 0 0 0 0 0 0 0 0 0 0 0 0 0 0 0 0 0 0 0 0 0 0 0 0 0 0 0 0 0 0 0 0 0
0 0 0 0 0 0 0 1 2 1 0 0 0 0 0 0 0 0 0 0 0 0 0 0 0 0 0 0 0 0 0 0 0 0 0 0 0 0 0 0 0 0 0
0 0 0 0 0 0 0 1 1 0 0 0 0 0 0 0 0 0 0 0 0 0 0 0 0 0 0 0 0 0 0 0 0 0 0 0 0 0 0 0 0 0 0
0 0 0 0 0 0 0 0 0 0 0 0 0 0 0 0 0 0 0 0 0 0 0 0 0 0 0 0 0 0 0 0 0 0 0 0 0 0 0 0 0 0 0
0 0 0 0 0 0 0 0 0 0 0 0 0 0 0 0 0 0 0 0 0 0 0 0 0 0 0 0 0 0 0 0 0 0 0 0 0 0 0 0 0 0 0
0 0 0 0 0 0 0 0 0 0 0 0 0 0 0 0 0 0 0 0 0 0 0 0 0 0 0 0 0 0 0 0 0 0 0 0 0 0 0 0 0 0 0
0 0 0 0 0 0 0 0 0 0 0 0 0 0 0 0 0 0 0 0 0 0 0 0 0 0 0 0 0 0 0 0 0 0 0 0 0 0 0 0 0 0 0
0 0 0 0 0 0 0 0 0 0 0 0 0 0 0 0 0 0 0 0 0 0 0 0 0 0 0 0 0 0 0 0 0 0 0 0 0 0 0 0 0 0 0
0 0 0 0 0 0 0 0 0 0 0 0 0 0 0 0 0 0 0 0 0 0 0 0 0 0 0 0 0 0 0 0 0 0 0 0 0 0 0 0 0 0 0
0 0 0 0 0 0 0 0 0 0 0 0 0 0 0 0 0 0 0 0 0 0 0 0 0 0 0 0 0 0 0 0 0 0 0 0 0 0 0 0 0 0 0
Wind_Speed
2 1 1 1 1 2 2 2 3 4 4 4 4 4 4 4 4 3 3 7 8 8 9 9 9 9 9 10 10 10 10 10 10 11 11 11 11 11 11 11 10 9 9
2 2 2 2 2 2 2 2 3 3 3 3 4 4 3 3 3 3 3 5 8 8 8 8 9 9 9 10 10 10 10 10 10 11 11 11 11 10 10 10 10 10 9
3 3 2 2 2 2 3 3 3 3 4 4 4 3 3 3 3 3 3 3 4 7 8 8 9 8 9 9 9 9 9 10 10 10 10 10 10 10 10 10 9 9 9
3 3 2 2 2 2 3 3 3 3 3 3 3 2 2 2 3 3 3 3 3 3 5 8 8 8 8 9 9 9 9 9 9 9 10 10 10 9 9 9 9 9 9
3 3 2 2 2 3 3 3 3 2 3 3 2 2 2 2 2 3 2 3 3 3 2 5 8 8 8 8 8 8 9 9 9 9 9 9 9 9 9 9 9 9 9
3 3 2 2 3 3 3 3 3 3 2 2 3 3 3 2 2 2 2 2 2 3 3 3 4 5 7 8 8 8 8 8 8 9 9 9 9 9 9 9 9 9 9
3 3 3 2 3 3 3 3 3 3 2 2 3 3 3 4 3 2 2 2 2 2 3 3 3 3 3 6 6 7 7 7 8 8 8 9 9 8 8 8 9 9 9
3 3 3 2 2 3 3 2 2 2 1 1 2 2 2 3 3 3 2 2 2 2 3 3 3 3 3 2 4 6 7 7 7 8 9 9 8 8 8 8 9 9 9
2 2 3 2 2 2 2 2 2 3 1 1 1 2 3 2 1 3 3 2 2 2 2 2 3 3 3 2 2 5 7 6 7 7 8 7 7 7 8 8 9 9 9
2 2 2 2 2 2 2 2 2 2 2 1 1 1 2 3 2 0 2 2 3 3 2 2 3 3 3 3 4 6 8 7 7 7 7 7 7 8 8 8 8 8 8
2 2 2 2 2 2 2 2 2 2 2 2 1 1 1 1 2 3 1 1 2 2 1 1 2 2 2 2 2 5 8 8 8 7 7 7 7 7 7 7 7 8 8
1 2 2 2 2 2 2 2 2 2 2 2 1 1 2 2 2 2 2 1 0 1 1 1 1 1 1 2 3 6 7 7 7 7 7 7 7 7 7 7 7 7 6
1 2 2 2 2 2 2 2 2 2 2 2 2 1 1 2 2 3 3 2 1 0 1 1 1 1 1 2 2 6 6 7 6 6 6 6 6 6 6 6 6 6 6
3 3 3 3 3 2 3 2 1 2 2 2 2 2 1 1 2 3 3 4 2 0 0 1 1 0 1 2 2 3 3 6 5 5 5 5 5 5 5 5 5 6 6
2 2 3 3 3 3 3 3 2 2 2 1 2 2 1 1 1 2 3 3 4 3 2 1 1 0 1 1 2 2 2 4 5 4 4 4 4 5 5 5 5 5 5
2 2 2 2 2 2 2 2 2 1 2 1 2 2 1 1 1 1 2 2 2 3 3 2 2 1 2 2 3 2 2 4 4 3 3 3 3 4 4 4 4 4 4
2 2 3 2 2 2 2 2 2 2 2 1 1 2 2 2 1 1 1 2 2 2 3 1 1 1 2 3 2 1 1 1 1 3 3 2 2 2 3 3 3 3 3
2 3 3 2 2 2 2 2 2 2 2 2 2 2 2 2 2 1 2 2 2 2 3 3 2 2 2 3 3 2 1 2 1 3 3 3 2 2 2 2 2 2 2
2 2 3 3 2 2 2 2 2 2 2 2 2 3 2 2 2 2 2 2 2 2 2 4 3 1 1 2 2 1 1 0 1 2 3 3 3 3 2 2 1 1 1
2 2 2 3 2 2 2 2 2 2 2 2 2 2 3 3 4 3 3 3 3 3 2 3 2 2 2 2 2 2 1 1 1 1 2 2 2 3 3 2 2 2 1
1 2 2 2 2 2 2 2 2 2 2 2 1 2 2 3 4 4 3 4 4 3 3 3 3 2 2 3 3 2 2 1 1 1 1 1 1 1 2 3 4 3 3
1 1 1 2 2 2 2 3 2 2 2 2 2 2 2 2 3 3 4 5 6 5 5 3 3 4 4 4 3 3 3 2 2 2 1 2 1 2 2 2 4 5 5
0 0 1 1 1 2 2 2 3 2 2 2 2 2 2 2 2 2 3 4 5 6 7 6 5 5 6 6 6 5 4 4 4 2 2 2 1 2 3 4 7 7 7
1 1 1 1 1 2 2 2 2 2 2 2 3 3 2 2 2 2 2 2 2 3 4 4 5 6 5 5 7 7 6 3 0 1 3 2 2 3 3 3 7 8 8
1 1 1 2 2 2 3 2 2 2 1 2 3 2 2 2 3 3 3 3 2 2 3 3 4 4 5 6 6 4 4 3 2 2 2 2 2 1 1 2 4 7 8
2 2 2 2 2 3 3 3 2 2 2 2 2 2 4 4 4 4 4 4 4 3 2 1 2 2 3 5 7 7 6 5 3 3 3 3 2 1 1 2 2 3 4
Wind_Direction
109 109 94 78 63 59 64 69 74 72 66 70 81 86 83 78 67 57 53 77 84 85 87 88 90 91 91 91 89 86 85 84 84 82 80 79 77 78 79 79 82 81 81
113 106 90 77 66 68 71 85 91 87 75 73 71 72 82 90 77 68 54 60 69 78 85 87 89 88 88 91 93 92 90 88 88 84 82 80 79 79 80 79 79 79 79
105 104 93 80 73 76 76 74 72 74 77 74 67 64 73 84 89 78 67 53 52 65 75 83 85 88 93 96 95 91 91 90 90 89 86 83 81 81 81 79 79 79 77
95 101 97 85 80 79 79 79 76 76 70 71 64 54 63 71 83 84 72 66 58 54 60 73 79 85 97 99 97 96 95 91 91 91 88 85 82 81 80 79 79 77 73
92 99 98 94 85 76 72 86 77 90 84 75 75 60 49 60 71 86 83 77 71 64 52 66 71 79 92 97 98 98 97 95 94 92 88 86 85 81 79 80 79 76 73
90 97 95 87 88 84 72 74 80 69 81 87 83 63 42 37 53 66 85 78 74 79 63 58 53 61 79 91 96 96 99 99 98 95 92 90 87 83 81 81 79 77 72
99 98 100 89 91 97 102 102 92 78 62 73 79 52 29 31 41 36 55 73 71 71 68 60 52 48 54 74 89 97 96 101 100 97 94 90 86 84 83 80 79 75 72
108 115 114 113 108 102 98 99 102 95 71 72 106 95 44 13 11 24 32 66 68 65 69 71 60 56 53 47 65 86 88 94 99 97 94 88 86 85 83 80 78 73 70
118 117 126 129 130 128 138 138 130 126 131 28 100 136 137 180 324 360 18 43 58 62 56 62 69 63 65 56 52 70 80 81 93 91 92 90 87 87 85 80 78 74 71
133 132 141 140 141 140 143 154 134 137 138 153 351 52 141 148 143 91 357 17 45 59 59 76 79 72 72 69 72 84 81 73 79 86 87 86 84 87 83 80 80 77 75
160 160 163 158 155 152 156 146 126 131 143 157 164 128 89 84 109 136 156 359 24 20 41 74 87 77 76 82 84 90 82 72 72 79 80 80 79 83 82 83 81 79 78
190 183 173 174 173 166 163 161 148 149 157 148 150 151 149 148 158 140 150 162 144 343 22 50 95 100 94 94 104 102 92 80 76 76 76 74 75 78 83 81 78 79 79
207 212 180 177 176 179 173 164 153 161 161 156 164 176 177 182 162 148 142 151 150 268 18 21 34 110 114 97 102 112 100 90 82 76 74 72 71 74 79 78 75 73 75
203 205 191 185 184 175 173 166 161 179 162 170 176 171 179 198 167 160 157 148 137 102 12 261 3 81 109 114 120 113 105 105 95 84 76 75 73 72 74 75 72 70 73
203 194 192 186 189 184 174 164 166 190 174 185 190 184 179 184 166 178 161 156 154 166 209 221 208 220 136 125 145 127 113 121 110 97 86 80 80 78 80 80 75 72 74
201 177 179 179 182 179 166 160 171 184 171 197 190 179 181 182 161 159 171 172 159 158 181 208 202 184 161 149 152 137 139 140 131 122 112 101 91 91 95 89 81 76 76
188 178 177 172 169 159 164 166 184 187 182 201 202 185 193 171 155 162 152 153 153 145 156 194 178 159 146 148 138 136 151 156 160 155 150 145 131 114 105 102 91 80 81
193 186 167 161 169 168 175 174 189 193 186 195 204 190 205 181 179 181 169 168 168 163 154 165 177 158 160 167 157 159 162 170 185 185 179 176 170 158 129 115 108 91 81
196 180 157 164 174 177 180 185 181 203 198 196 195 193 205 176 195 193 183 176 175 167 154 156 169 161 139 153 138 156 150 154 209 199 198 199 193 185 177 163 145 126 105
177 175 175 181 181 182 181 189 196 206 199 198 197 196 201 191 197 193 191 186 170 157 155 155 155 158 154 153 138 152 178 253 244 228 208 194 199 199 197 198 200 195 180
177 177 171 179 182 187 197 199 197 192 183 196 207 212 214 207 202 193 190 183 169 164 159 166 166 153 164 163 183 180 186 203 263 227 207 230 208 225 224 226 218 217 210
191 151 165 179 191 218 218 193 182 179 183 187 207 233 238 222 221 219 205 183 172 169 174 175 184 188 197 193 176 172 162 157 242 239 178 243 185 223 240 232 231 225 225
187 87 200 179 202 243 224 204 208 179 185 201 208 219 248 250 227 218 221 206 195 189 181 180 190 204 197 194 178 181 187 189 211 206 166 232 217 235 243 238 229 227 228
188 206 233 219 212 256 262 241 219 190 200 215 212 208 212 239 229 187 173 173 196 205 203 195 201 212 207 194 188 190 189 181 188 195 160 206 217 234 247 238 238 232 234
194 221 232 223 224 262 266 245 208 184 209 235 231 219 206 217 237 180 160 174 197 247 241 223 224 230 222 199 179 154 150 153 207 227 188 194 219 235 259 247 244 238 235
209 219 246 238 227 248 265 250 219 187 207 234 244 238 231 220 212 185 177 179 198 226 220 231 246 253 225 202 186 181 179 178 184 221 202 185 195 164 262 267 247 240 235